CST,Max TemperatureF,Mean TemperatureF,Min TemperatureF,Max Dew PointF,MeanDew PointF,Min DewpointF,Max Humidity, Mean Humidity, Min Humidity, Max Sea Level PressureIn, Mean Sea Level PressureIn, Min Sea Level PressureIn, Max VisibilityMiles, Mean VisibilityMiles, Min VisibilityMiles, Max Wind SpeedMPH, Mean Wind SpeedMPH, Max Gust SpeedMPH,PrecipitationIn, CloudCover, Events, WindDirDegrees
2013-1-1,19,10,2,14,8,0,89,80,71,30.32,30.24,30.18,10,10,7,13,8,,0.00,2,,327
2013-1-2,29,14,0,21,12,-3,92,75,64,30.25,30.18,30.11,10,10,2,16,8,23,0.00,2,,214
2013-1-3,32,20,8,28,20,5,91,85,74,30.39,30.29,30.17,10,10,10,18,10,32,0.00,5,,281
2013-1-4,32,18,5,24,17,4,92,80,69,30.37,30.31,30.26,10,10,10,20,9,16,0.00,0,,234
2013-1-5,37,27,17,36,27,16,100,88,78,30.27,30.15,30.03,10,10,1,18,9,26,0.02,5,Rain-Snow,215
2013-1-6,35,27,19,32,21,16,93,82,70,30.36,30.24,30.03,10,10,5,23,15,30,0.00,4,,275
2013-1-7,39,28,18,30,24,16,93,80,59,30.35,30.23,30.11,10,10,7,17,9,24,0.00,0,,179
2013-1-8,42,35,28,33,29,25,87,77,65,30.15,30.10,30.04,10,10,7,15,9,,0.00,1,,180
2013-1-9,47,38,29,36,32,29,100,83,58,30.51,30.36,30.10,10,10,10,14,9,17,0.00,0,,267
2013-1-10,39,34,29,38,33,28,100,93,65,30.48,30.16,29.80,10,6,0,16,8,,0.67,5,Fog-Rain,104
2013-1-11,56,47,38,54,46,39,100,91,77,29.82,29.74,29.68,10,6,0,21,11,26,0.08,4,Fog-Rain,191
2013-1-12,54,38,23,46,32,21,96,81,68,30.04,29.94,29.72,10,8,1,22,14,29,0.02,5,Snow,304
2013-1-13,23,16,9,21,12,6,93,79,68,30.32,30.15,29.97,10,10,4,20,13,23,0.02,6,Snow,308
2013-1-14,21,14,7,14,9,5,92,80,60,30.51,30.45,30.34,10,10,10,10,5,,0.00,0,,289
2013-1-15,27,16,6,18,11,3,90,79,53,30.45,30.34,30.17,10,10,10,6,1,,0.00,1,,93
2013-1-16,36,23,10,29,19,7,92,75,57,30.17,30.05,29.94,10,10,10,23,9,29,0.00,3,,232
2013-1-17,33,28,22,31,22,17,94,78,58,30.46,30.36,30.12,10,10,7,20,10,21,0.00,1,,314
2013-1-18,48,34,21,32,26,18,86,67,48,30.46,30.21,30.00,10,10,10,30,13,39,0.00,0,,201
2013-1-19,51,42,30,39,33,25,81,68,58,30.15,29.96,29.85,10,10,10,26,18,37,0.00,0,,251
2013-1-20,29,22,14,20,11,7,88,73,57,30.38,30.32,30.17,10,10,4,25,16,41,0.00,4,Snow,314
2013-1-21,13,8,4,9,0,-5,83,68,50,30.39,30.35,30.29,10,10,5,25,17,32,0.00,2,Snow,300
2013-1-22,16,8,1,9,-1,-4,85,66,43,30.48,30.41,30.37,10,10,10,14,8,17,0.00,3,,292
2013-1-23,34,24,13,19,10,3,72,62,49,30.42,30.27,30.14,10,10,10,25,7,33,0.00,3,,253
2013-1-24,23,15,7,12,4,-2,74,59,42,30.65,30.50,30.27,10,10,10,18,13,24,0.00,1,,83
2013-1-25,39,30,20,22,16,10,80,60,41,30.28,30.15,30.06,10,10,10,22,10,25,0.00,4,,256
2013-1-26,32,21,10,16,11,6,85,64,43,30.42,30.35,30.27,10,10,10,14,7,17,0.00,1,,93
2013-1-27,43,34,24,44,29,16,100,90,69,30.32,30.08,29.88,10,5,1,18,12,25,0.16,7,Rain-Thunderstorm,145
2013-1-28,55,50,44,56,48,44,100,100,100,29.95,29.88,29.76,10,2,0,16,8,,0.01,8,Fog-Rain,147
2013-1-29,62,49,36,59,53,37,100,97,85,29.76,29.60,29.46,10,7,0,18,13,25,1.10,7,Rain-Thunderstorm,211
2013-1-30,36,28,19,36,27,14,100,94,78,29.85,29.54,29.32,10,8,1,33,15,41,0.25,8,Rain-Snow,304
2013-1-31,23,14,5,19,8,-2,87,77,68,30.35,30.06,29.85,10,9,3,30,19,37,0.00,7,Snow,289